Location: Bratislava
(0.0000°N, 17.1167°E)
Time: 13:12:26
(UTC+02:00)

Daily predictions for brighter satellites

Satellite Brightness Start Highest point End
(mag) Time Altitude Azimuth Time Altitude Azimuth Time Altitude Azimuth
Ariane H10+ 4.2 19:02:36 10° W 19:19:06 77° S 19:24:21 10° E
Delta 2 Rocket 4.1 19:15:40 10° WNW 19:21:38 64° SSW 19:27:45 10° SE
Cosmos 1842 3.9 19:22:42 10° SSW 19:26:33 61° W 19:30:21 10° N
Landsat 4 3.9 19:26:26 10° NNE 19:30:07 49° ESE 19:33:49 10° S
Cosmos 2263 Rocket 3.9 19:25:54 10° SW 19:31:08 38° WNW 19:36:22 10° N
SL-16 R/B 2.3 19:26:18 10° N 19:31:51 59° ENE 19:37:26 10° SSE
Cosmos 2228 4.2 19:29:37 10° NNE 19:33:11 25° E 19:36:46 10° SE
Aureole 1 Rocket 2.8 19:30:55 10° SSE 19:33:42 31° ESE 19:36:22 10° NE
SME Rocket 3.2 19:31:44 10° SSE 19:35:48 47° ENE 19:39:21 10° N
Cosmos 2237 Rocket 3.8 19:31:19 10° NW 19:36:24 35° WSW 19:41:31 10° S
Cosmos 1805 4.3 19:33:50 10° NNE 19:37:04 25° E 19:39:56 12° SE
H-2A R/B 2.9 19:34:47 10° SSE 19:38:36 55° E 19:42:22 10° N
Ariane H10-3 3.1 19:22:10 10° W 19:41:39 59° S 19:45:06 16° ESE
Ariane H10 2.1 19:40:19 10° WNW 19:43:01 36° N 19:44:50 13° ENE
IRS-1A Rocket 4.3 19:38:07 10° SSE 19:43:43 85° ENE 19:49:25 10° NNW
DELTA 2 R/B (1) 3.7 19:40:17 10° NW 19:45:48 72° SW 19:50:28 15° SE
Envisat 4.3 19:43:43 15° ESE 19:46:05 20° ENE 19:49:44 10° NNE
Cosmos 2058 Rocket 3.7 19:43:21 10° NNE 19:47:15 33° E 19:50:14 15° SE
Cosmos 1766 3.2 19:43:43 10° N 19:47:36 63° E 19:51:28 10° SSE
YAOGAN 1 3.8 19:46:54 10° S 19:51:00 42° WSW 19:55:05 10° NNW
Cosmos 1726 Rocket 3.5 19:46:50 10° N 19:51:11 63° E 19:55:31 10° SSE
Cosmos 1953 4.5 19:51:08 10° ENE 19:51:32 11° ENE 19:51:32 11° ENE
EO 1 Del DPAF 4.0 19:49:30 10° N 19:53:12 55° WNW 19:56:55 10° SSW
Cosmos 1400 Rocket 3.0 19:49:42 10° S 19:53:40 48° E 19:57:34 10° NNE
SWIFT 4.3 19:50:55 10° NNW 19:54:02 19° NNE 19:56:50 11° ENE
Thor Agena Rocket 3.8 19:49:56 10° NNE 19:54:40 42° ESE 19:59:25 10° S
Meteor 1-22 Rocket 4.2 19:49:06 10° N 19:54:47 83° E 20:00:44 10° S
BREEZE-M DEB (TANK) 2.1 19:56:02 10° NNW 19:58:12 49° ENE 20:00:01 25° ESE
Cosmos 1048 Rocket 3.9 19:53:57 10° S 19:59:10 80° ESE 20:04:26 10° NNE
FREGAT/IRIS 2.6 20:08:54 53° E 20:09:00 53° E 20:11:52 10° N
OAO 2 Rocket 4.1 20:04:06 10° NNW 20:09:03 42° NE 20:11:19 28° E
Intercosmos 25 3.7 20:05:35 10° SSW 20:09:15 55° W 20:12:20 10° N
BLOCK DM-SL R/B 3.4 20:03:52 10° W 20:10:57 81° S 20:13:39 28° E
Cosmos 1733 3.9 20:18:10 10° NNE 20:20:58 37° NE 20:20:58 37° NE
GOES 2 Rocket 2.9 20:18:03 10° WNW 20:22:17 73° SSW 20:23:09 53° SE
GPS 2-17 Rocket1 3.8 20:18:25 10° NW 20:23:01 45° NNE 20:24:19 36° ENE
ASTRO E2 3.8 20:21:09 10° NNW 20:24:41 31° NNE 20:24:53 31° NE
GPS 2-15 Rocket1 4.4 20:22:51 10° NW 20:27:02 30° NNE 20:28:15 26° NE
ATLAS 2AS CENTAUR R/B 4.3 20:24:15 10° SW 20:30:43 38° WNW 20:37:43 10° N
SPOT 3 Rocket 4.0 20:26:43 15° S 20:30:58 61° WSW 20:36:03 10° NNW
ATLAS V CENTAUR R/B 4.2 20:30:21 10° WSW 20:30:55 19° WSW 20:30:55 19° WSW
Cosmos 1707 4.5 20:31:38 10° SSW 20:35:07 32° W 20:38:34 10° NNW
BREEZE M DEB (TANK) 3.7 20:33:59 10° NNW 20:35:24 21° N 20:35:24 21° N
Cosmos 1371 Rocket 3.9 20:32:42 10° NNW 20:37:52 89° WSW 20:39:13 51° S
IRAS Rocket 4.4 20:39:40 30° S 20:42:27 71° WSW 20:48:00 10° NNW
Cosmos 1844 Rocket 3.5 20:37:03 10° SSW 20:42:31 50° WNW 20:47:57 10° N
Cosmos 1943 3.9 20:41:34 10° N 20:45:37 36° NE 20:45:37 36° NE
Cosmos 2056 Rocket 3.4 20:45:42 10° NNW 20:50:57 85° WSW 20:51:20 77° SSW
Cosmos 1844 4.2 20:45:42 10° SSW 20:51:11 57° WNW 20:56:43 10° N
Cosmos 494 Rocket 3.9 20:50:00 48° SSW 20:51:28 82° WNW 20:56:41 10° N
Cosmos 1758 Rocket 4.1 20:53:14 53° NNW 20:53:14 53° NNW 20:56:42 10° N
Cosmos 1624 Rocket 4.1 20:49:49 10° NNW 20:55:04 70° WSW 20:55:33 65° SW
SYLDA PLATFORM 4.4 20:55:57 10° W 20:58:57 45° WNW 20:58:57 45° WNW
CZ-3C R/B 4.3 20:52:28 10° SW 21:01:10 56° SSE 22:23:17 10° ENE
NOSS 3-4 (A) 3.7 21:02:58 10° SSW 21:09:14 64° WNW 21:15:17 10° NNE
NOSS 3-4 (C) 3.7 21:03:05 10° SSW 21:09:19 65° WNW 21:15:22 10° NNE
Iridium 4 Rocket 4.1 21:11:15 60° N 21:11:15 60° N 21:15:47 10° N
Resurs 01 Rocket 4.1 21:14:30 15° N 21:14:30 15° N 21:15:13 10° N
Meteor 1-24 Rocket 4.1 21:11:07 62° WSW 21:11:45 67° W 21:17:43 10° N
Hubble Space Telescope 3.7 21:11:23 10° N 21:11:30 10° N 21:11:30 10° N
ARIANE 5 R/B 3.2 21:03:04 10° W 21:14:28 42° SW 21:14:28 42° SW
ARIANE 5 DEB (SYLDA) 4.0 21:06:22 10° W 21:27:18 84° WSW 21:27:18 84° WSW
